K3MJW-2 Weather Reports


Display with metric or nautical units.
time (UTC)temp
F
wind
direction
speed
MPH
gust
MPH
rain 1hr
in
rain 24hr
in
rain mn
in
humidity
%
barometer
mb
20190119192247 36 110 5.0 8.0 0.00 0.00 0.00 76 1010.8
20190119192006 36 109 7.0 13.0 0.00 0.00 0.00 76 1010.8
20190119191217 36 95 7.0 9.0 0.00 0.00 0.00 76 1010.9
20190119191006 36 115 9.0 13.0 0.00 0.00 0.00 76 1011.0
20190119190217 36 112 7.0 10.0 0.00 0.00 0.00 76 1011.1
20190119190008 36 111 6.0 10.0 0.00 0.00 0.00 76 1011.2
20190119185147 36 112 7.0 10.0 0.00 0.00 0.00 76 1011.5
20190119185006 36 107 7.0 12.0 0.00 0.00 0.00 76 1011.5
20190119184117 36 118 7.0 10.0 0.00 0.00 0.00 77 1011.7
20190119184006 36 116 6.0 10.0 0.00 0.00 0.00 77 1011.7
20190119183047 36 90 8.0 8.0 0.00 0.00 0.00 77 1012.0
20190119183006 36 90 7.0 14.0 0.00 0.00 0.00 77 1012.0
20190119182017 36 114 3.0 12.0 0.00 0.00 0.00 78 1012.5
20190119182006 36 114 5.0 12.0 0.00 0.00 0.00 78 1012.5
20190119181006 35 113 6.0 12.0 0.00 0.00 0.00 79 1012.6
20190119180947 35 88 6.0 6.0 0.00 0.00 0.00 79 1012.7
20190119180008 35 125 6.0 12.0 0.00 0.00 0.00 80 1013.2
20190119175947 35 130 6.0 7.0 0.00 0.00 0.00 80 1013.1
20190119175006 35 98 4.0 10.0 0.00 0.00 0.00 80 1013.5
20190119174917 35 111 5.0 5.0 0.00 0.00 0.00 80 1013.6
20190119174007 35 116 5.0 12.0 0.00 0.00 0.00 81 1014.1
20190119173847 35 129 5.0 6.0 0.00 0.01 0.00 81 1014.2
20190119173006 35 116 6.0 10.0 0.00 0.01 0.00 81 1014.4
20190119172847 35 107 8.0 10.0 0.00 0.01 0.00 82 1014.4
20190119172006 35 123 5.0 10.0 0.00 0.01 0.00 82 1014.7
20190119171847 35 116 5.0 6.0 0.00 0.01 0.00 82 1014.7
20190119171006 34 126 7.0 9.0 0.00 0.01 0.00 82 1014.8
20190119170847 34 125 7.0 9.0 0.00 0.01 0.00 82 1014.9
20190119170006 34 126 4.0 8.0 0.00 0.01 0.00 82 1015.3
20190119165847 34 113 5.0 5.0 0.00 0.01 0.00 82 1015.3
20190119165006 34 98 6.0 10.0 0.00 0.01 0.00 83 1015.6
20190119164817 34 104 5.0 8.0 0.00 0.01 0.00 82 1015.7
20190119164006 34 40 1.0 10.0 0.00 0.02 0.00 83 1016.0
20190119163747 34 84 6.0 10.0 0.00 0.02 0.00 83 1016.2
20190119163006 34 93 5.0 8.0 0.00 0.02 0.00 83 1016.5
20190119162747 34 87 6.0 8.0 0.00 0.02 0.00 83 1016.6
20190119162006 33 69 5.0 8.0 0.00 0.03 0.00 83 1017.0
20190119161717 33 89 6.0 7.0 0.00 0.03 0.00 83 1017.2
20190119161006 33 79 0.0 0.0 0.00 0.03 0.00 82 1017.5
20190119160647 33 79 0.0 0.0 0.00 0.04 0.00 82 1017.6
20190119160006 33 79 0.0 0.0 0.00 0.04 0.00 83 1017.9
20190119155647 33 79 0.0 0.0 0.00 0.04 0.00 83 1017.9
20190119155006 33 79 0.0 5.0 0.00 0.05 0.00 83 1017.9
20190119154617 33 79 0.0 0.0 0.00 0.05 0.00 83 1017.9
20190119154006 33 90 2.0 6.0 0.00 0.05 0.00 83 1017.8
20190119153547 33 73 0.0 0.0 0.00 0.05 0.00 83 1017.7
20190119153006 32 70 5.0 8.0 0.00 0.06 0.00 83 1017.7
20190119152517 32 75 0.0 0.0 0.00 0.06 0.00 83 1017.7
20190119152006 32 75 0.0 7.0 0.00 0.06 0.00 84 1017.5
20190119151517 32 75 5.0 6.0 0.00 0.07 0.00 84 1017.5
20190119151006 32 77 5.0 9.0 0.00 0.07 0.00 84 1017.6
20190119150517 32 79 6.0 6.0 0.00 0.07 0.00 85 1017.7
20190119150007 32 58 0.0 0.0 0.00 0.07 0.00 85 1017.8
20190119145447 32 58 0.0 0.0 0.00 0.08 0.00 86 1018.1
20190119145006 32 58 0.0 0.0 0.00 0.08 0.00 86 1018.1
20190119144447 31 58 0.0 0.0 0.00 0.08 0.00 87 1018.2
20190119144007 31 58 0.0 0.0 0.00 0.08 0.00 87 1018.2
20190119143417 31 58 0.0 0.0 0.00 0.09 0.00 87 1018.3
20190119143007 31 58 0.0 0.0 0.00 0.09 0.00 87 1018.5
20190119142417 31 58 0.0 0.0 0.00 0.09 0.00 88 1018.4
20190119142006 31 58 0.0 6.0 0.00 0.09 0.00 88 1018.5
20190119141417 31 71 5.0 6.0 0.00 0.10 0.00 88 1018.8
20190119141006 31 52 2.0 5.0 0.00 0.10 0.00 88 1018.9
20190119140417 31 42 0.0 0.0 0.00 0.10 0.00 89 1019.0
20190119140006 31 42 0.0 9.0 0.00 0.10 0.00 89 1018.9
20190119135347 30 60 5.0 5.0 0.00 0.11 0.00 89 1018.9
20190119135006 30 80 5.0 13.0 0.00 0.11 0.00 89 1019.0
20190119134347 30 87 6.0 13.0 0.00 0.11 0.00 90 1019.1
20190119134006 30 54 6.0 9.0 0.00 0.11 0.00 90 1019.2
20190119133347 30 42 0.0 0.0 0.00 0.12 0.00 90 1019.6
20190119133006 30 42 0.0 7.0 0.00 0.12 0.00 90 1019.6
20190119132347 30 53 5.0 7.0 0.00 0.12 0.00 90 1019.7
20190119132007 30 47 5.0 9.0 0.00 0.13 0.00 90 1019.8
20190119131347 30 50 5.0 6.0 0.00 0.13 0.00 90 1019.8
20190119131006 30 58 6.0 9.0 0.00 0.13 0.00 90 1019.9
20190119130317 30 59 5.0 7.0 0.00 0.13 0.00 90 1020.1
20190119130006 30 56 5.0 8.0 0.00 0.13 0.00 90 1020.2
20190119125317 30 57 5.0 5.0 0.00 0.13 0.00 90 1020.4
20190119125007 30 64 6.0 8.0 0.00 0.13 0.00 90 1020.3
20190119124317 30 55 0.0 7.0 0.00 0.13 0.00 90 1020.6
20190119124006 30 52 0.0 0.0 0.00 0.13 0.00 90 1020.7
20190119123247 30 52 0.0 0.0 0.00 0.13 0.00 90 1020.8
20190119123007 30 52 0.0 0.0 0.00 0.13 0.00 90 1020.7
20190119122247 30 52 0.0 0.0 0.00 0.13 0.00 91 1020.9
20190119122008 30 52 0.0 0.0 0.00 0.13 0.00 91 1020.8
20190119121217 30 52 0.0 0.0 0.00 0.13 0.00 91 1020.9
20190119121006 30 52 0.0 0.0 0.00 0.13 0.00 91 1020.9
20190119120147 30 52 0.0 0.0 0.00 0.13 0.00 91 1021.0
20190119120006 30 52 0.0 0.0 0.00 0.13 0.00 91 1021.0
20190119115147 30 52 0.0 0.0 0.00 0.13 0.00 92 1021.1
20190119115006 30 52 0.0 0.0 0.00 0.13 0.00 92 1021.1
20190119114117 30 52 0.0 0.0 0.00 0.13 0.00 92 1021.2
20190119114006 30 52 0.0 0.0 0.00 0.13 0.00 92 1021.1
20190119113117 30 52 0.0 0.0 0.00 0.13 0.00 92 1020.8
20190119113006 30 52 0.0 0.0 0.00 0.13 0.00 92 1020.8
20190119112117 30 52 0.0 0.0 0.00 0.13 0.00 92 1020.8
20190119112008 30 52 0.0 0.0 0.00 0.13 0.00 92 1020.8
20190119111117 30 52 0.0 0.0 0.00 0.13 0.00 92 1020.8
20190119111006 30 52 0.0 0.0 0.00 0.13 0.00 92 1020.8
20190119110117 30 52 0.0 0.0 0.00 0.13 0.00 92 1020.7
20190119110007 30 52 0.0 0.0 0.00 0.13 0.00 92 1020.7
20190119105047 30 52 0.0 0.0 0.00 0.13 0.00 92 1020.7
20190119105006 30 52 0.0 0.0 0.00 0.13 0.00 92 1020.7
20190119104017 29 52 0.0 0.0 0.00 0.13 0.00 92 1020.4
20190119104006 29 52 0.0 0.0 0.00 0.13 0.00 92 1020.4
20190119103017 29 52 0.0 0.0 0.00 0.13 0.00 92 1020.5
20190119103006 29 52 0.0 5.0 0.00 0.13 0.00 92 1020.5
20190119102017 29 59 5.0 5.0 0.00 0.13 0.00 92 1020.4
20190119102007 29 59 5.0 7.0 0.00 0.13 0.00 92 1020.4
20190119101006 30 59 0.0 8.0 0.00 0.13 0.00 92 1020.4
20190119100947 29 59 0.0 0.0 0.00 0.13 0.00 92 1020.5
20190119100006 30 64 6.0 8.0 0.00 0.13 0.00 92 1020.5
20190119095917 30 64 6.0 7.0 0.00 0.13 0.00 92 1020.5
20190119095006 30 45 5.0 7.0 0.00 0.13 0.00 93 1021.0
20190119094917 30 44 5.0 7.0 0.00 0.13 0.00 93 1021.1
20190119094006 30 44 5.0 7.0 0.00 0.13 0.00 93 1021.4
20190119093847 29 44 5.0 6.0 0.00 0.13 0.00 93 1021.4
20190119093006 29 42 5.0 8.0 0.00 0.13 0.00 93 1021.2
20190119092817 29 42 6.0 8.0 0.00 0.13 0.00 93 1021.0
20190119092007 29 294 0.0 0.0 0.00 0.13 0.00 93 1021.2
20190119091817 30 294 0.0 0.0 0.00 0.13 0.00 93 1021.3
20190119091006 30 294 0.0 0.0 0.00 0.13 0.00 93 1021.6
20190119090747 30 294 0.0 0.0 0.00 0.13 0.00 93 1021.8
20190119090007 30 294 0.0 0.0 0.00 0.13 0.00 93 1022.1
20190119085747 30 294 0.0 0.0 0.00 0.13 0.00 93 1022.2
20190119085006 30 294 0.0 0.0 0.00 0.13 0.00 93 1022.3
20190119084747 30 294 0.0 0.0 0.00 0.13 0.00 94 1022.3
20190119084007 30 294 0.0 0.0 0.00 0.13 0.00 94 1022.1
20190119083747 30 294 0.0 0.0 0.00 0.13 0.00 94 1021.9
20190119083006 30 294 0.0 0.0 0.00 0.13 0.00 94 1021.8
20190119082717 30 294 0.0 0.0 0.00 0.13 0.00 94 1021.6
20190119082005 30 294 0.0 0.0 0.00 0.13 0.00 94 1021.7
20190119081717 30 294 0.0 0.0 0.00 0.13 0.00 94 1021.9
20190119081007 30 294 0.0 0.0 0.00 0.13 0.00 95 1022.1
20190119080647 29 294 0.0 0.0 0.00 0.13 0.00 95 1022.2
20190119080006 29 294 0.0 0.0 0.00 0.13 0.00 95 1022.3
20190119075647 29 294 0.0 0.0 0.00 0.13 0.00 95 1022.4
20190119075007 29 294 0.0 0.0 0.00 0.13 0.00 95 1022.7
20190119074647 29 294 0.0 0.0 0.00 0.13 0.00 95 1022.9
20190119074006 29 294 0.0 0.0 0.00 0.13 0.00 95 1022.9
20190119073617 29 294 0.0 0.0 0.00 0.13 0.00 95 1023.1
20190119073006 29 294 0.0 0.0 0.00 0.13 0.00 95 1022.9
20190119072547 29 294 0.0 0.0 0.00 0.13 0.00 95 1022.9
20190119072006 29 294 0.0 0.0 0.00 0.13 0.00 95 1022.8
20190119071517 29 294 0.0 0.0 0.00 0.13 0.00 95 1022.6
20190119071006 29 294 0.0 0.0 0.00 0.13 0.00 95 1022.6
20190119070517 29 294 0.0 0.0 0.00 0.13 0.00 95 1022.5
20190119070007 29 294 0.0 0.0 0.00 0.13 0.00 94 1022.6
20190119065517 29 294 0.0 0.0 0.00 0.13 0.00 94 1022.7
20190119065009 29 294 0.0 0.0 0.00 0.13 0.00 94 1022.7
20190119064447 29 294 0.0 0.0 0.00 0.13 0.00 94 1022.6
20190119064006 29 294 0.0 0.0 0.00 0.13 0.00 94 1022.7
20190119063447 29 294 0.0 0.0 0.00 0.13 0.00 94 1022.6
20190119063006 29 294 0.0 0.0 0.00 0.13 0.00 94 1022.6
20190119062447 30 294 0.0 0.0 0.00 0.13 0.00 94 1022.8
20190119062006 30 294 0.0 0.0 0.00 0.13 0.00 94 1022.9
20190119061447 30 294 0.0 0.0 0.00 0.13 0.00 93 1022.9
20190119061007 30 294 0.0 0.0 0.00 0.13 0.00 93 1022.9
20190119060417 30 294 0.0 0.0 0.00 0.13 0.00 93 1022.9
20190119060006 30 294 0.0 0.0 0.00 0.13 0.00 93 1023.0
20190119055417 30 294 0.0 0.0 0.00 0.13 0.00 93 1023.1
20190119055005 30 294 0.0 0.0 0.00 0.13 0.00 93 1023.1
20190119054347 30 294 0.0 0.0 0.00 0.13 0.00 93 1023.2
20190119054005 30 294 0.0 0.0 0.00 0.13 0.00 93 1023.2
20190119053317 30 294 0.0 0.0 0.00 0.13 0.00 93 1023.2
20190119053005 30 294 0.0 0.0 0.00 0.13 0.00 93 1023.1
20190119052247 30 294 0.0 0.0 0.00 0.13 0.00 92 1023.0
20190119052006 30 294 0.0 0.0 0.00 0.13 0.00 92 1023.0
20190119051217 30 294 0.0 0.0 0.00 0.13 0.00 92 1023.2
20190119051006 30 294 0.0 0.0 0.00 0.13 0.00 92 1023.2
20190119050147 30 294 0.0 0.0 0.00 0.13 0.00 92 1023.1
20190119050006 30 294 0.0 0.0 0.00 0.13 0.00 92 1023.1
20190119045147 30 294 0.0 0.0 0.00 0.13 0.13 92 1022.9
20190119045006 30 294 0.0 0.0 0.00 0.13 0.13 92 1022.9
20190119044117 30 294 0.0 0.0 0.00 0.13 0.13 92 1023.1
20190119044006 30 294 0.0 0.0 0.00 0.13 0.13 92 1023.1
20190119043117 31 294 0.0 0.0 0.00 0.13 0.13 92 1023.2
20190119043007 31 294 0.0 0.0 0.00 0.13 0.13 92 1023.2
20190119042047 31 294 0.0 0.0 0.00 0.13 0.13 92 1023.3
20190119042006 31 294 0.0 0.0 0.00 0.13 0.13 92 1023.3
20190119041017 31 294 0.0 0.0 0.00 0.13 0.13 91 1023.3
20190119041006 31 294 0.0 0.0 0.00 0.13 0.13 91 1023.3
20190119040005 31 294 0.0 0.0 0.00 0.13 0.13 91 1023.4
20190119035947 31 294 0.0 0.0 0.00 0.13 0.13 91 1023.4
20190119035005 31 294 0.0 0.0 0.00 0.13 0.13 90 1023.3
20190119034947 31 294 0.0 0.0 0.00 0.13 0.13 90 1023.3
20190119034006 31 294 0.0 0.0 0.00 0.13 0.13 90 1023.2
20190119033947 31 294 0.0 0.0 0.00 0.13 0.13 90 1023.1
20190119033006 31 294 0.0 0.0 0.00 0.13 0.13 90 1023.0
20190119032947 31 294 0.0 0.0 0.00 0.13 0.13 90 1022.9
20190119032006 31 294 0.0 0.0 0.00 0.13 0.13 90 1022.8
20190119031917 31 294 0.0 0.0 0.00 0.13 0.13 90 1022.8
20190119031006 32 294 0.0 0.0 0.00 0.13 0.13 90 1023.0
20190119030847 32 294 0.0 0.0 0.00 0.13 0.13 90 1023.0
20190119030006 32 294 0.0 0.0 0.00 0.13 0.13 90 1023.1
20190119025847 32 294 0.0 0.0 0.00 0.13 0.13 90 1023.1
20190119025005 32 294 0.0 0.0 0.00 0.13 0.13 90 1023.1
20190119024817 32 294 0.0 0.0 0.00 0.13 0.13 90 1023.2
20190119024007 32 294 0.0 0.0 0.00 0.13 0.13 90 1023.3
20190119023817 32 294 0.0 0.0 0.00 0.13 0.13 90 1023.3
20190119023005 32 294 0.0 0.0 0.00 0.13 0.13 90 1023.2
20190119022747 32 294 0.0 0.0 0.00 0.13 0.13 90 1023.2
20190119022006 32 294 0.0 0.0 0.00 0.13 0.13 90 1023.2
20190119021747 32 294 0.0 0.0 0.00 0.13 0.13 90 1023.3
20190119021006 32 294 0.0 0.0 0.00 0.13 0.13 90 1023.2
20190119020747 32 294 0.0 0.0 0.00 0.13 0.13 90 1023.2
20190119020005 32 294 0.0 0.0 0.00 0.13 0.13 90 1023.2
20190119015717 32 294 0.0 0.0 0.00 0.13 0.13 90 1023.2
20190119015006 32 294 0.0 0.0 0.00 0.13 0.13 90 1023.1
20190119014717 32 294 0.0 0.0 0.00 0.13 0.13 90 1023.1
20190119014006 32 294 0.0 0.0 0.00 0.13 0.13 90 1023.2
20190119013647 32 294 0.0 0.0 0.00 0.13 0.13 90 1023.2
20190119013006 33 294 0.0 0.0 0.00 0.13 0.13 90 1023.2
20190119012647 33 294 0.0 0.0 0.00 0.13 0.13 90 1023.3
20190119012006 33 294 0.0 0.0 0.00 0.13 0.13 90 1023.3
20190119011617 33 294 0.0 0.0 0.00 0.13 0.13 90 1023.3
20190119011006 33 294 0.0 0.0 0.00 0.13 0.13 90 1023.2
20190119010617 33 294 0.0 0.0 0.00 0.13 0.13 90 1023.1
20190119010006 33 294 0.0 0.0 0.00 0.13 0.13 90 1023.0
20190119005617 33 294 0.0 0.0 0.00 0.13 0.13 90 1022.9
20190119005006 33 294 0.0 0.0 0.00 0.13 0.13 90 1022.9
20190119004547 33 294 0.0 0.0 0.00 0.13 0.13 90 1022.8
20190118230317 33 294 0.0 0.0 0.00 0.13 0.13 89 1022.6
20190118230008 33 294 0.0 0.0 0.00 0.13 0.13 89 1022.6
20190118225317 33 294 0.0 0.0 0.00 0.13 0.13 90 1022.5
20190118225006 33 294 0.0 0.0 0.00 0.13 0.13 90 1022.6
20190118224317 33 294 0.0 0.0 0.00 0.13 0.13 90 1022.5
20190118223247 33 294 0.0 0.0 0.00 0.13 0.13 90 1022.1
20190118223006 33 294 0.0 0.0 0.00 0.13 0.13 91 1022.2
20190118222247 33 294 0.0 0.0 0.00 0.13 0.13 91 1022.2
20190118222005 33 294 0.0 0.0 0.00 0.13 0.13 91 1022.1
20190118221217 33 294 0.0 0.0 0.00 0.13 0.13 91 1021.9
20190118221005 33 294 0.0 0.0 0.00 0.13 0.13 91 1021.9
20190118220146 34 294 0.0 0.0 0.00 0.13 0.13 92 1021.7
20190118220005 34 294 0.0 0.0 0.00 0.13 0.13 92 1021.7
20190118215146 33 294 0.0 0.0 0.00 0.13 0.13 92 1021.7
20190118215006 33 294 0.0 0.0 0.00 0.13 0.13 92 1021.7
20190118214146 34 294 0.0 0.0 0.00 0.13 0.13 92 1021.5
20190118214006 34 294 0.0 0.0 0.00 0.13 0.13 92 1021.5
20190118213116 33 294 0.0 0.0 0.00 0.13 0.13 93 1021.4
20190118213006 33 294 0.0 0.0 0.00 0.13 0.13 93 1021.4
20190118212116 33 294 0.0 0.0 0.00 0.13 0.13 93 1021.5
20190118212005 33 294 0.0 0.0 0.00 0.13 0.13 93 1021.5
20190118211116 33 294 0.0 0.0 0.00 0.13 0.13 93 1021.5
20190118211009 33 294 0.0 0.0 0.00 0.13 0.13 93 1021.5
20190118210046 33 294 0.0 0.0 0.00 0.13 0.13 93 1021.4
20190118210005 33 294 0.0 0.0 0.00 0.13 0.13 93 1021.4
20190118205046 33 294 0.0 0.0 0.00 0.13 0.13 93 1021.6
20190118205006 33 294 0.0 3.0 0.00 0.13 0.13 93 1021.6
20190118204017 33 294 0.0 0.0 0.00 0.13 0.13 93 1021.6
20190118204006 33 294 0.0 0.0 0.00 0.13 0.13 93 1021.6
20190118203016 33 294 0.0 0.0 0.00 0.13 0.13 93 1021.4
20190118203006 33 294 0.0 5.0 0.00 0.13 0.13 93 1021.4
20190118202016 33 288 1.0 5.0 0.00 0.13 0.13 93 1021.0
20190118202005 33 288 1.0 8.0 0.00 0.13 0.13 93 1021.0
20190118201017 33 296 3.0 5.0 0.00 0.13 0.13 93 1021.0
20190118201005 33 296 3.0 7.0 0.00 0.13 0.13 93 1021.0
20190118200016 33 287 0.0 0.0 0.00 0.13 0.13 93 1020.9
20190118200005 33 287 0.0 2.0 0.00 0.13 0.13 93 1020.9
20190118195005 33 287 0.0 6.0 0.00 0.13 0.13 93 1020.8
20190118194946 33 287 0.0 0.0 0.00 0.13 0.13 93 1020.7
20190118194005 33 299 2.0 7.0 0.00 0.13 0.13 94 1020.7
20190118193946 33 286 0.0 7.0 0.00 0.13 0.13 94 1020.7
20190118193006 33 287 3.0 8.0 0.00 0.13 0.13 94 1020.6
20190118192946 33 303 3.0 6.0 0.00 0.13 0.13 94 1020.6